Location: Cazavet
(43.0017°N, 1.0431°E)
Time: 09:53:20
(UTC+00:00)

BREEZE-M DEB (TANK) - Pass Details

Date: 18 January 2026
Orbit: 290 x 14651 km, 49.5° (Epoch: 9 February)

Event Time Altitude Azimuth Distance (km) Brightness Sun altitude
Rises 03:14:36 0° 286° (WNW) 13,549 9.0 -44.9°
Enters shadow 03:21:24 - 288° (WNW) 11,916 8.7 -43.7°
Exits shadow 03:54:04 74° 38° (NE) 1,528 4.3 -37.8°
Drops below altitude 10° 03:58:51 10° 104° (ESE) 2,358 6.2 -36.9°
Sets 04:00:16 0° 107° (ESE) 2,932 6.9 -36.6°
